Aviation Digital Data Service (ADDS)

Output produced by METARs form (2145 UTC 15 December 2017)
found at http://www.aviationweather.gov/adds/metars/
 
OPLA 152125Z 30005KT 4000 FU NSC 09/06 Q1022/A30.14
TAF OPLA 151545Z 1518/1624 VRB03KT 1500 BR NSC TX19/1610Z TN05/1602Z 
     TEMPO 1521/1524 00000KT 0500 FG 
     TEMPO 1600/1603 0200 FG VVIII 
     TEMPO 1603/1605 0600 FG 
     BECMG 1607/1609 3000 FU 
     FM161000 32006KT 4000 FU NSC 
     FM161800 VRB02KT 3000 FU NSC 
     BECMG 1621/1624 1500 BR
       
TAF OPBW 151600Z 1518/1612 36005KT 1000 BR NSC TN04/1601Z TX16/1610Z 
     PROB30 
     TEMPO 1600/1605 00000KT 0100 FG VV/// 
     TEMPO 1608/1612 05005KT 2000 FU FEW120
       
TAF OPBW 151600Z 1518/1612 36005KT 1000 BR NSC TN04/1601Z TX16/1610Z 
     PROB30 
     TEMPO 1600/1605 00000KT 0100 FG VV/// 
     TEMPO 1608/1612 05005KT 2000 FU FEW120
       
TAF OPDG 151600Z 1518/1612 36005KT 2000 BR NSC TN05/1601Z TX19/1610Z 
     PROB30 
     TEMPO 1600/1605 00000KT 0500 FG VV/// 
     TEMPO 1608/1612 36005KT 4000 FU FEW120
       
TAF OPGD 151530Z 1518/1618 08008KT 5000 HZ NSC 
     TEMPO 1600/1604 06007KT 3000 FU NSC 
     BECMG 1606/1608 12010KT 6000 NSC
       
OPKC 152125Z 02010KT 6000 NSC 14/03 Q1022 NOSIG
TAF OPKC 151530Z 1518/1624 05012G22KT 5000 HZ NSC 
     BECMG 1606/1608 06010G20KT 6000 NSC 
     FM161900 04015G25KT 4000 HZ NSC
       
OPLA 152125Z 30005KT 4000 FU NSC 09/06 Q1022/A30.14
TAF OPLA 151545Z 1518/1624 VRB03KT 1500 BR NSC TX19/1610Z TN05/1602Z 
     TEMPO 1521/1524 00000KT 0500 FG 
     TEMPO 1600/1603 0200 FG VVIII 
     TEMPO 1603/1605 0600 FG 
     BECMG 1607/1609 3000 FU 
     FM161000 32006KT 4000 FU NSC 
     FM161800 VRB02KT 3000 FU NSC 
     BECMG 1621/1624 1500 BR
       
OPMT 151859Z 00000KT 3500 FU NSC 09/08 Q1024 NOSIG
TAF OPMT 151600Z 1518/1612 36005KT 3000 BR NSC TN05/1601Z TX18/1610Z 
     PROB30 
     TEMPO 1600/1605 00000KT 0500 FG VV/// 
     TEMPO 1608/1612 05005KT 3000 FU FEW120
       
OPNH 152100Z 00000KT 2000M FU NSC 10/07 Q.1017 TEMPO 1500 FU
TAF OPNH 151530Z 1518/1624 03005KT 2500 FU NSC 
     TEMPO 1601/1605 00000KT 1000 BR NSC 
     BECMG 1606/1608 36010KT 4000 HZ NSC 
     FM161800 03005KT 2500 FU NSC
       
OPPS 152130Z 23004KT 5000 HZ FEW100 08/03 Q1025
TAF OPPS 152115Z 1600/1706 23010KT 4000 HZ SCT150 SCT200 
     TEMPO 1601/1604 3000 BR 
     TEMPO 1606/1610 5000 
     TEMPO 1701/1704 3000
       
TAF OPRK 151600Z 1518/1612 05005KT 1000 BR NSC TN05/1601Z TX18/1610Z 
     PROB30 
     TEMPO 1600/1605 00000KT 0100 FG VV/// 
     TEMPO 1608/1612 05005KT 2000 FU FEW120
       
OPRN 152130Z 00000KT 4000 BR NSC 07/05 Q1023.9/30.24
TAF OPRN 150930Z 1512/1618 24010KT 6000 NSC 
     BECMG 1514/1516 30010KT 4000 HZ 
     BECMG 1518/1520 03006KT 2000 BR 
     BECMG 1523/1524 1000 
     TEMPO 1600/1604 0500 FG 
     BECMG 1605/1607 23010G20KT 6000 NSC
       
OPSK 152100Z 00000KT 1000 BR NSC 07/06 Q1022 TEMPO 1000M BR
TAF OPSK 151530Z 1518/1618 2000 FU NSC 
     TEMPO 1601/1605 00000KT 0500 FG VV/// 
     BECMG 1607/1609 05008KT 4000 HZ NSC
       
OPST 152100Z 27004KT 4000 FU NSC 08/05 Q1022 NOSIG RH86
TAF OPBW 151600Z 1518/1612 36005KT 1000 BR NSC TN04/1601Z TX16/1610Z 
     PROB30 
     TEMPO 1600/1605 00000KT 0100 FG VV/// 
     TEMPO 1608/1612 05005KT 2000 FU FEW120
       
TAF OPDG 151600Z 1518/1612 36005KT 2000 BR NSC TN05/1601Z TX19/1610Z 
     PROB30 
     TEMPO 1600/1605 00000KT 0500 FG VV/// 
     TEMPO 1608/1612 36005KT 4000 FU FEW120
       
TAF OPGD 151530Z 1518/1618 08008KT 5000 HZ NSC 
     TEMPO 1600/1604 06007KT 3000 FU NSC 
     BECMG 1606/1608 12010KT 6000 NSC
       
OPKC 152125Z 02010KT 6000 NSC 14/03 Q1022 NOSIG
TAF OPKC 151530Z 1518/1624 05012G22KT 5000 HZ NSC 
     BECMG 1606/1608 06010G20KT 6000 NSC 
     FM161900 04015G25KT 4000 HZ NSC
       
OPLA 152125Z 30005KT 4000 FU NSC 09/06 Q1022/A30.14
TAF OPLA 151545Z 1518/1624 VRB03KT 1500 BR NSC TX19/1610Z TN05/1602Z 
     TEMPO 1521/1524 00000KT 0500 FG 
     TEMPO 1600/1603 0200 FG VVIII 
     TEMPO 1603/1605 0600 FG 
     BECMG 1607/1609 3000 FU 
     FM161000 32006KT 4000 FU NSC 
     FM161800 VRB02KT 3000 FU NSC 
     BECMG 1621/1624 1500 BR
       
OPMT 151859Z 00000KT 3500 FU NSC 09/08 Q1024 NOSIG
TAF OPMT 151600Z 1518/1612 36005KT 3000 BR NSC TN05/1601Z TX18/1610Z 
     PROB30 
     TEMPO 1600/1605 00000KT 0500 FG VV/// 
     TEMPO 1608/1612 05005KT 3000 FU FEW120
       
OPNH 152100Z 00000KT 2000M FU NSC 10/07 Q.1017 TEMPO 1500 FU
TAF OPNH 151530Z 1518/1624 03005KT 2500 FU NSC 
     TEMPO 1601/1605 00000KT 1000 BR NSC 
     BECMG 1606/1608 36010KT 4000 HZ NSC 
     FM161800 03005KT 2500 FU NSC
       
OPPS 152130Z 23004KT 5000 HZ FEW100 08/03 Q1025
TAF OPPS 152115Z 1600/1706 23010KT 4000 HZ SCT150 SCT200 
     TEMPO 1601/1604 3000 BR 
     TEMPO 1606/1610 5000 
     TEMPO 1701/1704 3000
       
TAF OPRK 151600Z 1518/1612 05005KT 1000 BR NSC TN05/1601Z TX18/1610Z 
     PROB30 
     TEMPO 1600/1605 00000KT 0100 FG VV/// 
     TEMPO 1608/1612 05005KT 2000 FU FEW120
       
OPRN 152130Z 00000KT 4000 BR NSC 07/05 Q1023.9/30.24
TAF OPRN 150930Z 1512/1618 24010KT 6000 NSC 
     BECMG 1514/1516 30010KT 4000 HZ 
     BECMG 1518/1520 03006KT 2000 BR 
     BECMG 1523/1524 1000 
     TEMPO 1600/1604 0500 FG 
     BECMG 1605/1607 23010G20KT 6000 NSC
       
OPSK 152100Z 00000KT 1000 BR NSC 07/06 Q1022 TEMPO 1000M BR
TAF OPSK 151530Z 1518/1618 2000 FU NSC 
     TEMPO 1601/1605 00000KT 0500 FG VV/// 
     BECMG 1607/1609 05008KT 4000 HZ NSC
       
OPST 152100Z 27004KT 4000 FU NSC 08/05 Q1022 NOSIG RH86
OPRN 152130Z 00000KT 4000 BR NSC 07/05 Q1023.9/30.24
TAF OPRN 150930Z 1512/1618 24010KT 6000 NSC 
     BECMG 1514/1516 30010KT 4000 HZ 
     BECMG 1518/1520 03006KT 2000 BR 
     BECMG 1523/1524 1000 
     TEMPO 1600/1604 0500 FG 
     BECMG 1605/1607 23010G20KT 6000 NSC
       
TAF OPBW 151600Z 1518/1612 36005KT 1000 BR NSC TN04/1601Z TX16/1610Z 
     PROB30 
     TEMPO 1600/1605 00000KT 0100 FG VV/// 
     TEMPO 1608/1612 05005KT 2000 FU FEW120
       
TAF OPDG 151600Z 1518/1612 36005KT 2000 BR NSC TN05/1601Z TX19/1610Z 
     PROB30 
     TEMPO 1600/1605 00000KT 0500 FG VV/// 
     TEMPO 1608/1612 36005KT 4000 FU FEW120
       
TAF OPGD 151530Z 1518/1618 08008KT 5000 HZ NSC 
     TEMPO 1600/1604 06007KT 3000 FU NSC 
     BECMG 1606/1608 12010KT 6000 NSC
       
OPKC 152125Z 02010KT 6000 NSC 14/03 Q1022 NOSIG
TAF OPKC 151530Z 1518/1624 05012G22KT 5000 HZ NSC 
     BECMG 1606/1608 06010G20KT 6000 NSC 
     FM161900 04015G25KT 4000 HZ NSC
       
OPLA 152125Z 30005KT 4000 FU NSC 09/06 Q1022/A30.14
TAF OPLA 151545Z 1518/1624 VRB03KT 1500 BR NSC TX19/1610Z TN05/1602Z 
     TEMPO 1521/1524 00000KT 0500 FG 
     TEMPO 1600/1603 0200 FG VVIII 
     TEMPO 1603/1605 0600 FG 
     BECMG 1607/1609 3000 FU 
     FM161000 32006KT 4000 FU NSC 
     FM161800 VRB02KT 3000 FU NSC 
     BECMG 1621/1624 1500 BR
       
OPMT 151859Z 00000KT 3500 FU NSC 09/08 Q1024 NOSIG
TAF OPMT 151600Z 1518/1612 36005KT 3000 BR NSC TN05/1601Z TX18/1610Z 
     PROB30 
     TEMPO 1600/1605 00000KT 0500 FG VV/// 
     TEMPO 1608/1612 05005KT 3000 FU FEW120
       
OPNH 152100Z 00000KT 2000M FU NSC 10/07 Q.1017 TEMPO 1500 FU
TAF OPNH 151530Z 1518/1624 03005KT 2500 FU NSC 
     TEMPO 1601/1605 00000KT 1000 BR NSC 
     BECMG 1606/1608 36010KT 4000 HZ NSC 
     FM161800 03005KT 2500 FU NSC
       
OPPS 152130Z 23004KT 5000 HZ FEW100 08/03 Q1025
TAF OPPS 152115Z 1600/1706 23010KT 4000 HZ SCT150 SCT200 
     TEMPO 1601/1604 3000 BR 
     TEMPO 1606/1610 5000 
     TEMPO 1701/1704 3000
       
TAF OPRK 151600Z 1518/1612 05005KT 1000 BR NSC TN05/1601Z TX18/1610Z 
     PROB30 
     TEMPO 1600/1605 00000KT 0100 FG VV/// 
     TEMPO 1608/1612 05005KT 2000 FU FEW120
       
OPRN 152130Z 00000KT 4000 BR NSC 07/05 Q1023.9/30.24
TAF OPRN 150930Z 1512/1618 24010KT 6000 NSC 
     BECMG 1514/1516 30010KT 4000 HZ 
     BECMG 1518/1520 03006KT 2000 BR 
     BECMG 1523/1524 1000 
     TEMPO 1600/1604 0500 FG 
     BECMG 1605/1607 23010G20KT 6000 NSC
       
OPSK 152100Z 00000KT 1000 BR NSC 07/06 Q1022 TEMPO 1000M BR
TAF OPSK 151530Z 1518/1618 2000 FU NSC 
     TEMPO 1601/1605 00000KT 0500 FG VV/// 
     BECMG 1607/1609 05008KT 4000 HZ NSC
       
OPST 152100Z 27004KT 4000 FU NSC 08/05 Q1022 NOSIG RH86
TAF OPBW 151600Z 1518/1612 36005KT 1000 BR NSC TN04/1601Z TX16/1610Z 
     PROB30 
     TEMPO 1600/1605 00000KT 0100 FG VV/// 
     TEMPO 1608/1612 05005KT 2000 FU FEW120
       
TAF OPDG 151600Z 1518/1612 36005KT 2000 BR NSC TN05/1601Z TX19/1610Z 
     PROB30 
     TEMPO 1600/1605 00000KT 0500 FG VV/// 
     TEMPO 1608/1612 36005KT 4000 FU FEW120
       
TAF OPGD 151530Z 1518/1618 08008KT 5000 HZ NSC 
     TEMPO 1600/1604 06007KT 3000 FU NSC 
     BECMG 1606/1608 12010KT 6000 NSC
       
OPKC 152125Z 02010KT 6000 NSC 14/03 Q1022 NOSIG
TAF OPKC 151530Z 1518/1624 05012G22KT 5000 HZ NSC 
     BECMG 1606/1608 06010G20KT 6000 NSC 
     FM161900 04015G25KT 4000 HZ NSC
       
OPLA 152125Z 30005KT 4000 FU NSC 09/06 Q1022/A30.14
TAF OPLA 151545Z 1518/1624 VRB03KT 1500 BR NSC TX19/1610Z TN05/1602Z 
     TEMPO 1521/1524 00000KT 0500 FG 
     TEMPO 1600/1603 0200 FG VVIII 
     TEMPO 1603/1605 0600 FG 
     BECMG 1607/1609 3000 FU 
     FM161000 32006KT 4000 FU NSC 
     FM161800 VRB02KT 3000 FU NSC 
     BECMG 1621/1624 1500 BR
       
OPMT 151859Z 00000KT 3500 FU NSC 09/08 Q1024 NOSIG
TAF OPMT 151600Z 1518/1612 36005KT 3000 BR NSC TN05/1601Z TX18/1610Z 
     PROB30 
     TEMPO 1600/1605 00000KT 0500 FG VV/// 
     TEMPO 1608/1612 05005KT 3000 FU FEW120
       
OPNH 152100Z 00000KT 2000M FU NSC 10/07 Q.1017 TEMPO 1500 FU
TAF OPNH 151530Z 1518/1624 03005KT 2500 FU NSC 
     TEMPO 1601/1605 00000KT 1000 BR NSC 
     BECMG 1606/1608 36010KT 4000 HZ NSC 
     FM161800 03005KT 2500 FU NSC
       
OPPS 152130Z 23004KT 5000 HZ FEW100 08/03 Q1025
TAF OPPS 152115Z 1600/1706 23010KT 4000 HZ SCT150 SCT200 
     TEMPO 1601/1604 3000 BR 
     TEMPO 1606/1610 5000 
     TEMPO 1701/1704 3000
       
TAF OPRK 151600Z 1518/1612 05005KT 1000 BR NSC TN05/1601Z TX18/1610Z 
     PROB30 
     TEMPO 1600/1605 00000KT 0100 FG VV/// 
     TEMPO 1608/1612 05005KT 2000 FU FEW120
       
OPRN 152130Z 00000KT 4000 BR NSC 07/05 Q1023.9/30.24
TAF OPRN 150930Z 1512/1618 24010KT 6000 NSC 
     BECMG 1514/1516 30010KT 4000 HZ 
     BECMG 1518/1520 03006KT 2000 BR 
     BECMG 1523/1524 1000 
     TEMPO 1600/1604 0500 FG 
     BECMG 1605/1607 23010G20KT 6000 NSC
       
OPSK 152100Z 00000KT 1000 BR NSC 07/06 Q1022 TEMPO 1000M BR
TAF OPSK 151530Z 1518/1618 2000 FU NSC 
     TEMPO 1601/1605 00000KT 0500 FG VV/// 
     BECMG 1607/1609 05008KT 4000 HZ NSC
       
OPST 152100Z 27004KT 4000 FU NSC 08/05 Q1022 NOSIG RH86
TAF OPDG 151600Z 1518/1612 36005KT 2000 BR NSC TN05/1601Z TX19/1610Z 
     PROB30 
     TEMPO 1600/1605 00000KT 0500 FG VV/// 
     TEMPO 1608/1612 36005KT 4000 FU FEW120
       
TAF OPGD 151530Z 1518/1618 08008KT 5000 HZ NSC 
     TEMPO 1600/1604 06007KT 3000 FU NSC 
     BECMG 1606/1608 12010KT 6000 NSC
       
OPKC 152125Z 02010KT 6000 NSC 14/03 Q1022 NOSIG
TAF OPKC 151530Z 1518/1624 05012G22KT 5000 HZ NSC 
     BECMG 1606/1608 06010G20KT 6000 NSC 
     FM161900 04015G25KT 4000 HZ NSC
       
OPMT 151859Z 00000KT 3500 FU NSC 09/08 Q1024 NOSIG
TAF OPMT 151600Z 1518/1612 36005KT 3000 BR NSC TN05/1601Z TX18/1610Z 
     PROB30 
     TEMPO 1600/1605 00000KT 0500 FG VV/// 
     TEMPO 1608/1612 05005KT 3000 FU FEW120
       
OPNH 152100Z 00000KT 2000M FU NSC 10/07 Q.1017 TEMPO 1500 FU
TAF OPNH 151530Z 1518/1624 03005KT 2500 FU NSC 
     TEMPO 1601/1605 00000KT 1000 BR NSC 
     BECMG 1606/1608 36010KT 4000 HZ NSC 
     FM161800 03005KT 2500 FU NSC
       
OPPS 152130Z 23004KT 5000 HZ FEW100 08/03 Q1025
TAF OPPS 152115Z 1600/1706 23010KT 4000 HZ SCT150 SCT200 
     TEMPO 1601/1604 3000 BR 
     TEMPO 1606/1610 5000 
     TEMPO 1701/1704 3000
       
TAF OPRK 151600Z 1518/1612 05005KT 1000 BR NSC TN05/1601Z TX18/1610Z 
     PROB30 
     TEMPO 1600/1605 00000KT 0100 FG VV/// 
     TEMPO 1608/1612 05005KT 2000 FU FEW120
       
OPSK 152100Z 00000KT 1000 BR NSC 07/06 Q1022 TEMPO 1000M BR
TAF OPSK 151530Z 1518/1618 2000 FU NSC 
     TEMPO 1601/1605 00000KT 0500 FG VV/// 
     BECMG 1607/1609 05008KT 4000 HZ NSC